Time,TemperatureF,DewpointF,PressureIn,WindDirection,WindDirectionDegrees,WindSpeedMPH,WindSpeedGustMPH,Humidity,HourlyPrecipIn,Conditions,Clouds,dailyrainin,SoftwareType,DateUTC
2013-09-26 00:04:00,56.1,40.6,29.69,NE,45,0.0,0.0,56,0.00,,---,0.00,VWS V14.01,2013-09-26 07:04:00,
2013-09-26 00:09:00,55.9,40.9,29.69,NE,53,0.0,0.0,57,0.00,,---,0.00,VWS V14.01,2013-09-26 07:09:00,
2013-09-26 00:14:00,55.7,40.7,29.69,NE,53,0.0,0.0,57,0.00,,---,0.00,VWS V14.01,2013-09-26 07:14:00,
2013-09-26 00:19:00,55.6,41.1,29.69,NE,54,0.0,0.0,58,0.00,,---,0.00,VWS V14.01,2013-09-26 07:19:00,
2013-09-26 00:24:00,55.4,40.9,29.69,NE,53,0.0,0.0,58,0.00,,---,0.00,VWS V14.01,2013-09-26 07:24:00,
2013-09-26 00:29:00,55.2,41.1,29.69,NE,54,0.0,0.0,59,0.00,,---,0.00,VWS V14.01,2013-09-26 07:29:00,
2013-09-26 00:34:00,55.0,41.4,29.69,ENE,78,0.0,0.0,60,0.00,,---,0.00,VWS V14.01,2013-09-26 07:34:00,
2013-09-26 00:39:00,54.6,41.9,29.69,East,98,0.0,0.0,62,0.00,,---,0.00,VWS V14.01,2013-09-26 07:39:00,
2013-09-26 00:44:00,54.4,42.1,29.69,East,80,0.0,0.0,63,0.00,,---,0.00,VWS V14.01,2013-09-26 07:44:00,
2013-09-26 00:49:00,54.3,42.0,29.69,East,79,0.0,0.0,63,0.00,,---,0.00,VWS V14.01,2013-09-26 07:49:00,
2013-09-26 00:54:00,54.0,42.5,29.68,East,79,0.0,0.0,65,0.00,,---,0.00,VWS V14.01,2013-09-26 07:54:00,
2013-09-26 00:59:00,53.9,42.0,29.68,East,80,0.0,0.0,64,0.00,,---,0.00,VWS V14.01,2013-09-26 07:59:00,
2013-09-26 01:04:00,53.7,42.2,29.68,East,79,0.0,0.0,65,0.00,,---,0.00,VWS V14.01,2013-09-26 08:04:00,
2013-09-26 01:09:00,53.5,42.0,29.68,East,80,0.0,0.0,65,0.00,,---,0.00,VWS V14.01,2013-09-26 08:09:00,
2013-09-26 01:14:00,53.3,41.8,29.68,East,80,0.0,0.0,65,0.00,,---,0.00,VWS V14.01,2013-09-26 08:14:00,
2013-09-26 01:19:00,53.2,42.2,29.68,East,80,0.0,0.0,66,0.00,,---,0.00,VWS V14.01,2013-09-26 08:19:00,
2013-09-26 01:24:00,52.9,41.9,29.68,East,80,0.0,0.0,66,0.00,,---,0.00,VWS V14.01,2013-09-26 08:24:00,
2013-09-26 01:30:00,52.7,41.3,29.69,East,80,0.0,0.0,65,0.00,,---,0.00,VWS V14.01,2013-09-26 08:30:00,
2013-09-26 01:35:00,52.6,41.6,29.69,ENE,57,1.0,0.0,66,0.00,,---,0.00,VWS V14.01,2013-09-26 08:35:00,
2013-09-26 01:40:00,52.5,41.5,29.69,NE,56,0.0,0.0,66,0.00,,---,0.00,VWS V14.01,2013-09-26 08:40:00,
2013-09-26 01:45:00,52.1,41.1,29.69,ENE,57,0.0,0.0,66,0.00,,---,0.00,VWS V14.01,2013-09-26 08:45:00,
2013-09-26 01:50:00,51.7,40.7,29.69,ENE,57,0.0,0.0,66,0.00,,---,0.00,VWS V14.01,2013-09-26 08:50:00,
2013-09-26 01:55:00,51.3,41.1,29.69,ENE,57,0.0,0.0,68,0.00,,---,0.00,VWS V14.01,2013-09-26 08:55:00,
2013-09-26 02:00:00,51.2,41.0,29.69,NE,56,0.0,0.0,68,0.00,,---,0.00,VWS V14.01,2013-09-26 09:00:00,
2013-09-26 02:05:00,51.0,40.8,29.69,ENE,68,0.0,0.0,68,0.00,,---,0.00,VWS V14.01,2013-09-26 09:05:00,
2013-09-26 02:10:00,50.6,40.1,29.68,East,98,0.0,0.0,67,0.00,,---,0.00,VWS V14.01,2013-09-26 09:10:00,
2013-09-26 02:15:00,50.5,40.0,29.68,East,98,0.0,0.0,67,0.00,,---,0.00,VWS V14.01,2013-09-26 09:15:00,
2013-09-26 02:20:00,50.4,39.5,29.68,East,98,0.0,0.0,66,0.00,,---,0.00,VWS V14.01,2013-09-26 09:20:00,
2013-09-26 02:25:00,50.4,39.1,29.68,East,100,0.0,0.0,65,0.00,,---,0.00,VWS V14.01,2013-09-26 09:25:00,
2013-09-26 02:30:00,50.5,39.2,29.68,East,97,1.0,0.0,65,0.00,,---,0.00,VWS V14.01,2013-09-26 09:30:00,
2013-09-26 02:35:00,50.5,39.2,29.68,East,96,0.0,0.0,65,0.00,,---,0.00,VWS V14.01,2013-09-26 09:35:00,
2013-09-26 02:40:00,50.5,39.2,29.68,East,98,0.0,0.0,65,0.00,,---,0.00,VWS V14.01,2013-09-26 09:40:00,
2013-09-26 02:45:00,50.4,39.1,29.68,East,96,0.0,0.0,65,0.00,,---,0.00,VWS V14.01,2013-09-26 09:45:00,
2013-09-26 02:50:00,50.4,39.1,29.69,East,96,0.0,0.0,65,0.00,,---,0.00,VWS V14.01,2013-09-26 09:50:00,
2013-09-26 02:55:00,50.4,39.1,29.69,East,94,0.0,0.0,65,0.00,,---,0.00,VWS V14.01,2013-09-26 09:55:00,
2013-09-26 03:00:00,50.3,39.0,29.68,East,94,0.0,0.0,65,0.00,,---,0.00,VWS V14.01,2013-09-26 10:00:00,
2013-09-26 03:05:00,50.1,38.8,29.68,East,96,0.0,0.0,65,0.00,,---,0.00,VWS V14.01,2013-09-26 10:05:00,
2013-09-26 03:10:00,49.9,39.0,29.68,East,94,0.0,0.0,66,0.00,,---,0.00,VWS V14.01,2013-09-26 10:10:00,
2013-09-26 03:15:00,49.8,39.3,29.68,East,95,0.0,0.0,67,0.00,,---,0.00,VWS V14.01,2013-09-26 10:15:00,
2013-09-26 03:20:00,49.8,38.9,29.69,East,94,0.0,0.0,66,0.00,,---,0.00,VWS V14.01,2013-09-26 10:20:00,
2013-09-26 03:25:00,49.7,38.8,29.69,East,94,0.0,0.0,66,0.00,,---,0.00,VWS V14.01,2013-09-26 10:25:00,
2013-09-26 03:30:00,49.6,38.7,29.69,East,94,0.0,0.0,66,0.00,,---,0.00,VWS V14.01,2013-09-26 10:30:00,
2013-09-26 03:35:00,49.5,39.0,29.69,East,94,0.0,0.0,67,0.00,,---,0.00,VWS V14.01,2013-09-26 10:35:00,
2013-09-26 03:40:00,49.4,38.5,29.69,East,95,0.0,0.0,66,0.00,,---,0.00,VWS V14.01,2013-09-26 10:40:00,
2013-09-26 03:46:00,49.3,38.8,29.69,East,98,1.0,0.0,67,0.00,,---,0.00,VWS V14.01,2013-09-26 10:46:00,
2013-09-26 03:51:00,49.2,39.1,29.69,East,96,0.0,0.0,68,0.00,,---,0.00,VWS V14.01,2013-09-26 10:51:00,
2013-09-26 03:56:00,49.0,39.3,29.69,East,97,0.0,0.0,69,0.00,,---,0.00,VWS V14.01,2013-09-26 10:56:00,
2013-09-26 04:01:00,48.9,38.8,29.69,East,97,0.0,0.0,68,0.00,,---,0.00,VWS V14.01,2013-09-26 11:01:00,
2013-09-26 04:06:00,48.8,38.7,29.70,East,96,1.0,0.0,68,0.00,,---,0.00,VWS V14.01,2013-09-26 11:06:00,
2013-09-26 04:11:00,48.6,38.9,29.69,East,94,0.0,0.0,69,0.00,,---,0.00,VWS V14.01,2013-09-26 11:11:00,
2013-09-26 04:16:00,48.5,39.2,29.69,East,95,0.0,0.0,70,0.00,,---,0.00,VWS V14.01,2013-09-26 11:16:00,
2013-09-26 04:21:00,48.3,38.6,29.70,East,96,0.0,0.0,69,0.00,,---,0.00,VWS V14.01,2013-09-26 11:21:00,
2013-09-26 04:26:00,48.2,38.5,29.70,East,95,0.0,0.0,69,0.00,,---,0.00,VWS V14.01,2013-09-26 11:26:00,
2013-09-26 04:31:00,48.1,38.8,29.70,East,93,1.0,0.0,70,0.00,,---,0.00,VWS V14.01,2013-09-26 11:31:00,
2013-09-26 04:36:00,48.1,38.4,29.70,East,101,0.0,0.0,69,0.00,,---,0.00,VWS V14.01,2013-09-26 11:36:00,
2013-09-26 04:41:00,48.1,38.4,29.70,East,101,0.0,0.0,69,0.00,,---,0.00,VWS V14.01,2013-09-26 11:41:00,
2013-09-26 04:46:00,48.1,38.0,29.70,East,101,0.0,0.0,68,0.00,,---,0.00,VWS V14.01,2013-09-26 11:46:00,
2013-09-26 04:51:00,48.2,38.2,29.70,East,100,0.0,0.0,68,0.00,,---,0.00,VWS V14.01,2013-09-26 11:51:00,
2013-09-26 04:56:00,48.3,37.9,29.70,East,100,0.0,0.0,67,0.00,,---,0.00,VWS V14.01,2013-09-26 11:56:00,
2013-09-26 05:01:00,48.4,38.3,29.70,East,100,0.0,0.0,68,0.00,,---,0.00,VWS V14.01,2013-09-26 12:01:00,
2013-09-26 05:06:00,48.4,38.0,29.70,East,101,0.0,0.0,67,0.00,,---,0.00,VWS V14.01,2013-09-26 12:06:00,
2013-09-26 05:11:00,48.4,38.0,29.70,East,100,0.0,0.0,67,0.00,,---,0.00,VWS V14.01,2013-09-26 12:11:00,
2013-09-26 05:16:00,48.4,38.0,29.70,East,101,0.0,0.0,67,0.00,,---,0.00,VWS V14.01,2013-09-26 12:16:00,
2013-09-26 05:21:00,48.3,37.9,29.71,East,98,0.0,0.0,67,0.00,,---,0.00,VWS V14.01,2013-09-26 12:21:00,
2013-09-26 05:26:00,48.2,38.9,29.71,East,100,0.0,0.0,70,0.00,,---,0.00,VWS V14.01,2013-09-26 12:26:00,
2013-09-26 05:31:00,48.1,37.7,29.71,East,101,0.0,0.0,67,0.00,,---,0.00,VWS V14.01,2013-09-26 12:31:00,
2013-09-26 05:36:00,48.1,37.7,29.71,East,100,0.0,0.0,67,0.00,,---,0.00,VWS V14.01,2013-09-26 12:36:00,
2013-09-26 05:41:00,48.0,37.6,29.71,East,99,0.0,0.0,67,0.00,,---,0.00,VWS V14.01,2013-09-26 12:41:00,
2013-09-26 05:46:00,48.0,37.6,29.72,East,101,0.0,0.0,67,0.00,,---,0.00,VWS V14.01,2013-09-26 12:46:00,
2013-09-26 05:51:00,48.0,37.6,29.72,East,101,0.0,0.0,67,0.00,,---,0.00,VWS V14.01,2013-09-26 12:51:00,
2013-09-26 05:57:00,48.0,37.2,29.72,East,100,0.0,0.0,66,0.00,,---,0.00,VWS V14.01,2013-09-26 12:57:00,
2013-09-26 06:02:00,48.0,37.2,29.72,East,100,0.0,0.0,66,0.00,,---,0.00,VWS V14.01,2013-09-26 13:02:00,
2013-09-26 06:07:00,48.0,37.6,29.71,East,100,0.0,0.0,67,0.00,,---,0.00,VWS V14.01,2013-09-26 13:07:00,
2013-09-26 06:12:00,48.0,38.0,29.71,East,100,0.0,0.0,68,0.00,,---,0.00,VWS V14.01,2013-09-26 13:12:00,
2013-09-26 06:17:00,48.0,38.0,29.71,East,101,0.0,0.0,68,0.00,,---,0.00,VWS V14.01,2013-09-26 13:17:00,
2013-09-26 06:22:00,47.9,37.9,29.72,East,101,0.0,0.0,68,0.00,,---,0.00,VWS V14.01,2013-09-26 13:22:00,
2013-09-26 06:27:00,47.8,37.8,29.72,East,88,1.0,0.0,68,0.00,,---,0.00,VWS V14.01,2013-09-26 13:27:00,
2013-09-26 06:32:00,47.5,37.5,29.72,ESE,104,0.0,0.0,68,0.00,,---,0.00,VWS V14.01,2013-09-26 13:32:00,
2013-09-26 06:37:00,47.4,37.8,29.72,ESE,105,0.0,0.0,69,0.00,,---,0.00,VWS V14.01,2013-09-26 13:37:00,
2013-09-26 06:42:00,47.3,37.7,29.72,ESE,105,0.0,0.0,69,0.00,,---,0.00,VWS V14.01,2013-09-26 13:42:00,
2013-09-26 06:47:00,47.2,37.2,29.72,ESE,103,0.0,0.0,68,0.00,,---,0.00,VWS V14.01,2013-09-26 13:47:00,
2013-09-26 06:52:00,47.0,37.0,29.72,ESE,103,0.0,0.0,68,0.00,,---,0.00,VWS V14.01,2013-09-26 13:52:00,
2013-09-26 06:57:00,46.9,37.3,29.73,ESE,105,0.0,0.0,69,0.00,,---,0.00,VWS V14.01,2013-09-26 13:57:00,
2013-09-26 07:02:00,46.9,37.6,29.73,ESE,104,0.0,0.0,70,0.00,,---,0.00,VWS V14.01,2013-09-26 14:02:00,
2013-09-26 07:07:00,46.9,37.3,29.73,East,88,0.0,0.0,69,0.00,,---,0.00,VWS V14.01,2013-09-26 14:07:00,
2013-09-26 07:12:00,47.1,37.5,29.73,East,96,0.0,0.0,69,0.00,,---,0.00,VWS V14.01,2013-09-26 14:12:00,
2013-09-26 07:17:00,47.2,37.6,29.73,East,96,0.0,0.0,69,0.00,,---,0.00,VWS V14.01,2013-09-26 14:17:00,
2013-09-26 07:22:00,47.2,37.9,29.73,East,92,0.0,0.0,70,0.00,,---,0.00,VWS V14.01,2013-09-26 14:22:00,
2013-09-26 07:27:00,47.2,38.3,29.73,East,86,0.0,0.0,71,0.00,,---,0.00,VWS V14.01,2013-09-26 14:27:00,
2013-09-26 07:32:00,47.1,38.2,29.73,NE,55,0.0,0.0,71,0.00,,---,0.00,VWS V14.01,2013-09-26 14:32:00,
2013-09-26 07:37:00,47.0,37.7,29.73,ENE,65,0.0,0.0,70,0.00,,---,0.00,VWS V14.01,2013-09-26 14:37:00,
2013-09-26 07:42:00,47.0,38.1,29.73,ENE,65,0.0,0.0,71,0.00,,---,0.00,VWS V14.01,2013-09-26 14:42:00,
2013-09-26 07:47:00,47.0,37.7,29.73,ENE,70,0.0,0.0,70,0.00,,---,0.00,VWS V14.01,2013-09-26 14:47:00,
2013-09-26 07:53:00,47.0,37.7,29.73,ENE,67,0.0,0.0,70,0.00,,---,0.00,VWS V14.01,2013-09-26 14:53:00,
2013-09-26 07:58:00,47.0,37.4,29.73,East,101,0.0,0.0,69,0.00,,---,0.00,VWS V14.01,2013-09-26 14:58:00,
2013-09-26 08:03:00,47.2,37.6,29.73,NE,53,0.0,0.0,69,0.00,,---,0.00,VWS V14.01,2013-09-26 15:03:00,
2013-09-26 08:08:00,47.4,37.4,29.73,East,93,1.0,0.0,68,0.00,,---,0.00,VWS V14.01,2013-09-26 15:08:00,
2013-09-26 08:13:00,47.7,37.7,29.73,East,94,0.0,0.0,68,0.00,,---,0.00,VWS V14.01,2013-09-26 15:13:00,
2013-09-26 08:18:00,48.2,37.4,29.74,East,94,0.0,0.0,66,0.00,,---,0.00,VWS V14.01,2013-09-26 15:18:00,
2013-09-26 08:23:00,49.3,37.2,29.73,NE,53,0.0,0.0,63,0.00,,---,0.00,VWS V14.01,2013-09-26 15:23:00,
2013-09-26 08:28:00,50.1,37.6,29.73,NE,44,1.0,0.0,62,0.00,,---,0.00,VWS V14.01,2013-09-26 15:28:00,
2013-09-26 08:33:00,50.8,37.4,29.73,NE,44,0.0,0.0,60,0.00,,---,0.00,VWS V14.01,2013-09-26 15:33:00,
2013-09-26 08:38:00,51.4,38.8,29.74,ENE,69,0.0,0.0,62,0.00,,---,0.00,VWS V14.01,2013-09-26 15:38:00,
2013-09-26 08:43:00,51.7,39.5,29.74,East,81,0.0,0.0,63,0.00,,---,0.00,VWS V14.01,2013-09-26 15:43:00,
2013-09-26 08:48:00,51.9,40.1,29.74,ENE,57,1.0,0.0,64,0.00,,---,0.00,VWS V14.01,2013-09-26 15:48:00,
2013-09-26 08:53:00,52.0,38.6,29.74,NE,41,2.0,0.0,60,0.00,,---,0.00,VWS V14.01,2013-09-26 15:53:00,
2013-09-26 08:58:00,52.7,37.5,29.74,ENE,66,1.0,0.0,56,0.00,,---,0.00,VWS V14.01,2013-09-26 15:58:00,
2013-09-26 09:03:00,53.3,38.0,29.74,ENE,66,0.0,0.0,56,0.00,,---,0.00,VWS V14.01,2013-09-26 16:03:00,
2013-09-26 09:09:00,54.2,37.5,29.75,East,80,0.0,0.0,53,0.00,,---,0.00,VWS V14.01,2013-09-26 16:09:00,
2013-09-26 09:14:00,55.1,37.8,29.75,NE,52,0.0,0.0,52,0.00,,---,0.00,VWS V14.01,2013-09-26 16:14:00,
2013-09-26 09:19:00,56.0,37.6,29.75,ENE,73,0.0,0.0,50,0.00,,---,0.00,VWS V14.01,2013-09-26 16:19:00,
2013-09-26 09:24:00,56.7,37.8,29.75,East,85,1.0,0.0,49,0.00,,---,0.00,VWS V14.01,2013-09-26 16:24:00,
2013-09-26 09:29:00,57.2,38.2,29.76,NE,44,2.0,0.0,49,0.00,,---,0.00,VWS V14.01,2013-09-26 16:29:00,
2013-09-26 09:34:00,57.5,38.5,29.76,NNE,17,1.0,0.0,49,0.00,,---,0.00,VWS V14.01,2013-09-26 16:34:00,
2013-09-26 09:39:00,57.9,38.3,29.76,NE,38,0.0,0.0,48,0.00,,---,0.00,VWS V14.01,2013-09-26 16:39:00,
2013-09-26 09:44:00,58.2,39.2,29.76,East,86,1.0,0.0,49,0.00,,---,0.00,VWS V14.01,2013-09-26 16:44:00,
2013-09-26 09:49:00,58.7,39.1,29.76,East,91,2.0,0.0,48,0.00,,---,0.00,VWS V14.01,2013-09-26 16:49:00,
2013-09-26 09:54:00,59.2,39.5,29.76,ENE,74,2.0,0.0,48,0.00,,---,0.00,VWS V14.01,2013-09-26 16:54:00,
2013-09-26 09:59:00,59.7,40.0,29.76,East,81,3.0,0.0,48,0.00,,---,0.00,VWS V14.01,2013-09-26 16:59:00,
2013-09-26 10:04:00,60.2,40.5,29.76,NNE,30,1.0,0.0,48,0.00,,---,0.00,VWS V14.01,2013-09-26 17:04:00,
2013-09-26 10:09:00,60.7,39.8,29.76,East,83,1.0,0.0,46,0.00,,---,0.00,VWS V14.01,2013-09-26 17:09:00,
2013-09-26 10:14:00,61.0,40.1,29.76,NE,47,2.0,0.0,46,0.00,,---,0.00,VWS V14.01,2013-09-26 17:14:00,
2013-09-26 10:19:00,61.3,40.4,29.77,NE,55,4.0,0.0,46,0.00,,---,0.00,VWS V14.01,2013-09-26 17:19:00,
2013-09-26 10:25:00,61.7,41.3,29.77,ENE,61,5.0,0.0,47,0.00,,---,0.00,VWS V14.01,2013-09-26 17:25:00,
2013-09-26 10:30:00,62.0,40.4,29.77,ENE,60,3.0,0.0,45,0.00,,---,0.00,VWS V14.01,2013-09-26 17:30:00,
2013-09-26 10:35:00,62.2,40.6,29.77,NE,42,4.0,0.0,45,0.00,,---,0.00,VWS V14.01,2013-09-26 17:35:00,
2013-09-26 10:40:00,62.7,40.5,29.77,East,96,7.0,0.0,44,0.00,,---,0.00,VWS V14.01,2013-09-26 17:40:00,
2013-09-26 10:45:00,63.1,40.9,29.77,NE,45,10.0,0.0,44,0.00,,---,0.00,VWS V14.01,2013-09-26 17:45:00,
2013-09-26 10:50:00,63.7,40.8,29.77,NE,54,4.0,0.0,43,0.00,,---,0.00,VWS V14.01,2013-09-26 17:50:00,
2013-09-26 10:55:00,64.4,40.8,29.77,NNW,339,2.0,0.0,42,0.00,,---,0.00,VWS V14.01,2013-09-26 17:55:00,
2013-09-26 11:00:00,64.9,40.7,29.77,NE,38,4.0,0.0,41,0.00,,---,0.00,VWS V14.01,2013-09-26 18:00:00,
2013-09-26 11:05:00,65.0,40.1,29.77,East,99,6.0,0.0,40,0.00,,---,0.00,VWS V14.01,2013-09-26 18:05:00,
2013-09-26 11:10:00,65.3,41.0,29.77,East,84,3.0,0.0,41,0.00,,---,0.00,VWS V14.01,2013-09-26 18:10:00,
2013-09-26 11:15:00,65.9,40.9,29.77,ENE,77,0.0,0.0,40,0.00,,---,0.00,VWS V14.01,2013-09-26 18:15:00,
2013-09-26 11:20:00,66.3,40.6,29.77,NE,42,4.0,0.0,39,0.00,,---,0.00,VWS V14.01,2013-09-26 18:20:00,
2013-09-26 11:25:00,66.7,40.3,29.77,ENE,57,4.0,0.0,38,0.00,,---,0.00,VWS V14.01,2013-09-26 18:25:00,
2013-09-26 11:30:00,66.4,39.4,29.77,NE,34,4.0,0.0,37,0.00,,---,0.00,VWS V14.01,2013-09-26 18:30:00,
2013-09-26 11:35:00,66.3,40.0,29.77,ESE,111,5.0,0.0,38,0.00,,---,0.00,VWS V14.01,2013-09-26 18:35:00,
2013-09-26 11:40:00,66.5,39.5,29.77,NE,45,2.0,0.0,37,0.00,,---,0.00,VWS V14.01,2013-09-26 18:40:00,
2013-09-26 11:45:00,66.7,40.3,29.77,East,91,4.0,0.0,38,0.00,,---,0.00,VWS V14.01,2013-09-26 18:45:00,
2013-09-26 11:50:00,67.1,40.0,29.77,East,89,2.0,0.0,37,0.00,,---,0.00,VWS V14.01,2013-09-26 18:50:00,
2013-09-26 11:56:00,67.6,40.4,29.77,ENE,70,3.0,0.0,37,0.00,,---,0.00,VWS V14.01,2013-09-26 18:56:00,
2013-09-26 12:01:00,67.8,40.6,29.77,ESE,113,7.0,0.0,37,0.00,,---,0.00,VWS V14.01,2013-09-26 19:01:00,
2013-09-26 12:06:00,67.9,40.7,29.76,NNE,26,1.0,0.0,37,0.00,,---,0.00,VWS V14.01,2013-09-26 19:06:00,
2013-09-26 12:11:00,68.2,40.2,29.77,ENE,62,2.0,0.0,36,0.00,,---,0.00,VWS V14.01,2013-09-26 19:11:00,
2013-09-26 12:16:00,68.8,40.8,29.76,NW,325,4.0,0.0,36,0.00,,---,0.00,VWS V14.01,2013-09-26 19:16:00,
2013-09-26 12:21:00,69.3,40.5,29.76,East,90,4.0,0.0,35,0.00,,---,0.00,VWS V14.01,2013-09-26 19:21:00,
2013-09-26 12:26:00,69.6,40.0,29.76,NNE,24,2.0,0.0,34,0.00,,---,0.00,VWS V14.01,2013-09-26 19:26:00,
2013-09-26 12:31:00,69.9,41.0,29.77,NNW,338,5.0,0.0,35,0.00,,---,0.00,VWS V14.01,2013-09-26 19:31:00,
2013-09-26 12:36:00,70.3,40.6,29.76,North,9,4.0,0.0,34,0.00,,---,0.00,VWS V14.01,2013-09-26 19:36:00,
2013-09-26 12:41:00,70.1,39.7,29.76,East,80,2.0,0.0,33,0.00,,---,0.00,VWS V14.01,2013-09-26 19:41:00,
2013-09-26 12:46:00,69.9,41.0,29.76,North,350,2.0,0.0,35,0.00,,---,0.00,VWS V14.01,2013-09-26 19:46:00,
2013-09-26 12:51:00,70.4,40.0,29.76,NE,44,2.0,0.0,33,0.00,,---,0.00,VWS V14.01,2013-09-26 19:51:00,
2013-09-26 12:56:00,71.0,41.2,29.76,NNE,23,5.0,0.0,34,0.00,,---,0.00,VWS V14.01,2013-09-26 19:56:00,
2013-09-26 13:01:00,71.6,41.0,29.76,NNE,24,5.0,0.0,33,0.00,,---,0.00,VWS V14.01,2013-09-26 20:01:00,
2013-09-26 13:06:00,71.6,41.0,29.76,NE,53,1.0,0.0,33,0.00,,---,0.00,VWS V14.01,2013-09-26 20:06:00,
2013-09-26 13:11:00,71.3,40.7,29.76,NW,312,3.0,0.0,33,0.00,,---,0.00,VWS V14.01,2013-09-26 20:11:00,
2013-09-26 13:17:00,71.5,41.7,29.76,ENE,75,4.0,0.0,34,0.00,,---,0.00,VWS V14.01,2013-09-26 20:17:00,
2013-09-26 13:22:00,72.0,42.1,29.75,NE,43,1.0,0.0,34,0.00,,---,0.00,VWS V14.01,2013-09-26 20:22:00,
2013-09-26 13:27:00,72.3,40.8,29.75,ENE,59,6.0,0.0,32,0.00,,---,0.00,VWS V14.01,2013-09-26 20:27:00,
2013-09-26 13:32:00,72.4,40.9,29.75,ENE,76,2.0,0.0,32,0.00,,---,0.00,VWS V14.01,2013-09-26 20:32:00,
2013-09-26 13:37:00,72.0,42.1,29.75,West,281,2.0,0.0,34,0.00,,---,0.00,VWS V14.01,2013-09-26 20:37:00,
2013-09-26 13:42:00,71.8,40.4,29.75,East,84,3.0,0.0,32,0.00,,---,0.00,VWS V14.01,2013-09-26 20:42:00,
2013-09-26 13:47:00,72.1,41.4,29.75,North,351,0.0,0.0,33,0.00,,---,0.00,VWS V14.01,2013-09-26 20:47:00,
2013-09-26 13:52:00,72.5,41.0,29.75,NE,38,4.0,0.0,32,0.00,,---,0.00,VWS V14.01,2013-09-26 20:52:00,
2013-09-26 13:57:00,73.1,41.5,29.74,NNW,328,0.0,0.0,32,0.00,,---,0.00,VWS V14.01,2013-09-26 20:57:00,
2013-09-26 14:02:00,73.4,41.0,29.74,NNE,22,4.0,0.0,31,0.00,,---,0.00,VWS V14.01,2013-09-26 21:02:00,
2013-09-26 14:07:00,73.3,40.0,29.74,ENE,69,3.0,0.0,30,0.00,,---,0.00,VWS V14.01,2013-09-26 21:07:00,
2013-09-26 14:12:00,72.9,40.5,29.74,NW,321,2.0,0.0,31,0.00,,---,0.00,VWS V14.01,2013-09-26 21:12:00,
2013-09-26 14:17:00,72.8,40.4,29.74,NE,43,4.0,0.0,31,0.00,,---,0.00,VWS V14.01,2013-09-26 21:17:00,
2013-09-26 14:22:00,72.3,40.8,29.74,ENE,60,3.0,0.0,32,0.00,,---,0.00,VWS V14.01,2013-09-26 21:22:00,
2013-09-26 14:27:00,72.8,41.3,29.74,East,101,5.0,0.0,32,0.00,,---,0.00,VWS V14.01,2013-09-26 21:27:00,
2013-09-26 14:32:00,73.3,40.9,29.74,NE,41,3.0,0.0,31,0.00,,---,0.00,VWS V14.01,2013-09-26 21:32:00,
2013-09-26 14:38:00,73.2,40.8,29.74,NE,46,5.0,0.0,31,0.00,,---,0.00,VWS V14.01,2013-09-26 21:38:00,
2013-09-26 14:43:00,73.3,40.0,29.74,ENE,57,3.0,0.0,30,0.00,,---,0.00,VWS V14.01,2013-09-26 21:43:00,
2013-09-26 14:48:00,73.3,40.9,29.74,NNE,16,2.0,0.0,31,0.00,,---,0.00,VWS V14.01,2013-09-26 21:48:00,
2013-09-26 14:53:00,73.6,41.1,29.74,East,88,2.0,0.0,31,0.00,,---,0.00,VWS V14.01,2013-09-26 21:53:00,
2013-09-26 14:58:00,73.3,40.0,29.74,SSE,153,2.0,0.0,30,0.00,,---,0.00,VWS V14.01,2013-09-26 21:58:00,
2013-09-26 15:03:00,72.9,40.5,29.74,NE,50,3.0,0.0,31,0.00,,---,0.00,VWS V14.01,2013-09-26 22:03:00,
2013-09-26 15:08:00,73.4,40.1,29.74,ENE,74,3.0,0.0,30,0.00,,---,0.00,VWS V14.01,2013-09-26 22:08:00,
2013-09-26 15:13:00,73.4,40.1,29.74,ENE,59,5.0,0.0,30,0.00,,---,0.00,VWS V14.01,2013-09-26 22:13:00,
2013-09-26 15:18:00,72.6,39.4,29.74,NNE,30,7.0,0.0,30,0.00,,---,0.00,VWS V14.01,2013-09-26 22:18:00,
2013-09-26 15:23:00,72.4,39.2,29.74,East,86,3.0,0.0,30,0.00,,---,0.00,VWS V14.01,2013-09-26 22:23:00,
2013-09-26 15:28:00,72.5,39.3,29.74,East,80,6.0,0.0,30,0.00,,---,0.00,VWS V14.01,2013-09-26 22:28:00,
2013-09-26 15:33:00,72.5,39.3,29.73,ENE,73,7.0,0.0,30,0.00,,---,0.00,VWS V14.01,2013-09-26 22:33:00,
2013-09-26 15:38:00,72.3,39.2,29.74,ENE,76,14.0,0.0,30,0.00,,---,0.00,VWS V14.01,2013-09-26 22:38:00,
2013-09-26 15:43:00,72.4,39.2,29.74,NE,42,1.0,0.0,30,0.00,,---,0.00,VWS V14.01,2013-09-26 22:43:00,
2013-09-26 15:48:00,72.3,40.0,29.74,ENE,69,8.0,0.0,31,0.00,,---,0.00,VWS V14.01,2013-09-26 22:48:00,
2013-09-26 15:54:00,72.0,38.9,29.74,East,86,3.0,0.0,30,0.00,,---,0.00,VWS V14.01,2013-09-26 22:54:00,
2013-09-26 15:59:00,72.1,39.8,29.74,East,85,4.0,0.0,31,0.00,,---,0.00,VWS V14.01,2013-09-26 22:59:00,
2013-09-26 16:04:00,71.9,39.7,29.73,NNE,12,5.0,0.0,31,0.00,,---,0.00,VWS V14.01,2013-09-26 23:04:00,
2013-09-26 16:09:00,71.8,40.4,29.73,NE,53,1.0,0.0,32,0.00,,---,0.00,VWS V14.01,2013-09-26 23:09:00,
2013-09-26 16:14:00,71.9,40.5,29.74,ENE,76,5.0,0.0,32,0.00,,---,0.00,VWS V14.01,2013-09-26 23:14:00,
2013-09-26 16:19:00,71.9,39.7,29.73,West,280,9.0,0.0,31,0.00,,---,0.00,VWS V14.01,2013-09-26 23:19:00,
2013-09-26 16:24:00,71.6,40.2,29.73,ENE,69,5.0,0.0,32,0.00,,---,0.00,VWS V14.01,2013-09-26 23:24:00,
2013-09-26 16:29:00,71.5,39.3,29.73,East,91,6.0,0.0,31,0.00,,---,0.00,VWS V14.01,2013-09-26 23:29:00,
2013-09-26 16:34:00,71.3,40.0,29.74,NE,55,6.0,0.0,32,0.00,,---,0.00,VWS V14.01,2013-09-26 23:34:00,
2013-09-26 16:39:00,71.0,38.9,29.74,East,90,12.0,0.0,31,0.00,,---,0.00,VWS V14.01,2013-09-26 23:39:00,
2013-09-26 16:44:00,70.9,39.6,29.74,NNE,28,3.0,0.0,32,0.00,,---,0.00,VWS V14.01,2013-09-26 23:44:00,
2013-09-26 16:49:00,70.6,39.3,29.74,East,97,2.0,0.0,32,0.00,,---,0.00,VWS V14.01,2013-09-26 23:49:00,
2013-09-26 16:54:00,70.5,39.2,29.74,NE,41,8.0,0.0,32,0.00,,---,0.00,VWS V14.01,2013-09-26 23:54:00,
2013-09-26 16:59:00,70.4,39.2,29.75,NNW,327,6.0,0.0,32,0.00,,---,0.00,VWS V14.01,2013-09-26 23:59:00,
2013-09-26 17:05:00,70.4,39.2,29.74,East,85,4.0,0.0,32,0.00,,---,0.00,VWS V14.01,2013-09-27 00:05:00,
2013-09-26 17:10:00,70.4,39.2,29.75,NE,50,6.0,0.0,32,0.00,,---,0.00,VWS V14.01,2013-09-27 00:10:00,
2013-09-26 17:15:00,70.4,39.2,29.75,ENE,71,2.0,0.0,32,0.00,,---,0.00,VWS V14.01,2013-09-27 00:15:00,
2013-09-26 17:20:00,70.3,39.1,29.75,NE,38,3.0,0.0,32,0.00,,---,0.00,VWS V14.01,2013-09-27 00:20:00,
2013-09-26 17:25:00,70.2,39.0,29.75,ENE,74,5.0,0.0,32,0.00,,---,0.00,VWS V14.01,2013-09-27 00:25:00,
2013-09-26 17:30:00,70.0,38.8,29.75,ENE,61,5.0,0.0,32,0.00,,---,0.00,VWS V14.01,2013-09-27 00:30:00,
2013-09-26 17:35:00,69.9,38.7,29.75,NE,46,5.0,0.0,32,0.00,,---,0.00,VWS V14.01,2013-09-27 00:35:00,
2013-09-26 17:40:00,69.9,38.7,29.75,NE,38,4.0,0.0,32,0.00,,---,0.00,VWS V14.01,2013-09-27 00:40:00,
2013-09-26 17:46:00,69.8,38.6,29.75,East,86,5.0,0.0,32,0.00,,---,0.00,VWS V14.01,2013-09-27 00:46:00,
2013-09-26 17:51:00,69.7,38.5,29.75,ENE,61,7.0,0.0,32,0.00,,---,0.00,VWS V14.01,2013-09-27 00:51:00,
2013-09-26 17:56:00,69.5,38.4,29.75,ENE,62,5.0,0.0,32,0.00,,---,0.00,VWS V14.01,2013-09-27 00:56:00,
2013-09-26 18:01:00,69.3,39.0,29.76,ENE,78,4.0,0.0,33,0.00,,---,0.00,VWS V14.01,2013-09-27 01:01:00,
2013-09-26 18:06:00,69.2,38.9,29.76,NNE,26,9.0,0.0,33,0.00,,---,0.00,VWS V14.01,2013-09-27 01:06:00,
2013-09-26 18:11:00,69.1,38.8,29.76,ENE,69,3.0,0.0,33,0.00,,---,0.00,VWS V14.01,2013-09-27 01:11:00,
2013-09-26 18:16:00,68.9,37.8,29.76,East,82,1.0,0.0,32,0.00,,---,0.00,VWS V14.01,2013-09-27 01:16:00,
2013-09-26 18:21:00,68.8,37.8,29.76,East,83,1.0,0.0,32,0.00,,---,0.00,VWS V14.01,2013-09-27 01:21:00,
2013-09-26 18:26:00,68.6,37.6,29.76,ENE,67,5.0,0.0,32,0.00,,---,0.00,VWS V14.01,2013-09-27 01:26:00,
2013-09-26 18:31:00,68.5,38.3,29.76,NE,51,4.0,0.0,33,0.00,,---,0.00,VWS V14.01,2013-09-27 01:31:00,
2013-09-26 18:36:00,68.3,38.1,29.76,ENE,69,3.0,0.0,33,0.00,,---,0.00,VWS V14.01,2013-09-27 01:36:00,
2013-09-26 18:41:00,68.1,37.9,29.76,NE,53,1.0,0.0,33,0.00,,---,0.00,VWS V14.01,2013-09-27 01:41:00,
2013-09-26 18:47:00,67.9,38.5,29.76,East,97,6.0,0.0,34,0.00,,---,0.00,VWS V14.01,2013-09-27 01:47:00,
2013-09-26 18:52:00,67.7,38.3,29.76,ENE,59,7.0,0.0,34,0.00,,---,0.00,VWS V14.01,2013-09-27 01:52:00,
2013-09-26 18:57:00,67.4,38.1,29.77,ENE,74,2.0,0.0,34,0.00,,---,0.00,VWS V14.01,2013-09-27 01:57:00,
2013-09-26 19:02:00,67.2,37.9,29.77,East,86,3.0,0.0,34,0.00,,---,0.00,VWS V14.01,2013-09-27 02:02:00,
2013-09-26 19:07:00,67.0,37.7,29.77,NNW,327,5.0,0.0,34,0.00,,---,0.00,VWS V14.01,2013-09-27 02:07:00,
2013-09-26 19:12:00,66.8,37.6,29.77,NE,48,4.0,0.0,34,0.00,,---,0.00,VWS V14.01,2013-09-27 02:12:00,
2013-09-26 19:17:00,66.6,37.4,29.78,NE,53,2.0,0.0,34,0.00,,---,0.00,VWS V14.01,2013-09-27 02:17:00,
2013-09-26 19:22:00,66.4,37.2,29.78,East,81,2.0,0.0,34,0.00,,---,0.00,VWS V14.01,2013-09-27 02:22:00,
2013-09-26 19:27:00,66.2,37.8,29.78,East,81,2.0,0.0,35,0.00,,---,0.00,VWS V14.01,2013-09-27 02:27:00,
2013-09-26 19:32:00,66.0,37.6,29.78,East,93,1.0,0.0,35,0.00,,---,0.00,VWS V14.01,2013-09-27 02:32:00,
2013-09-26 19:37:00,65.8,37.4,29.78,East,96,2.0,0.0,35,0.00,,---,0.00,VWS V14.01,2013-09-27 02:37:00,
2013-09-26 19:42:00,65.5,37.2,29.78,ENE,68,2.0,0.0,35,0.00,,---,0.00,VWS V14.01,2013-09-27 02:42:00,
2013-09-26 19:47:00,65.3,37.0,29.78,NE,42,4.0,0.0,35,0.00,,---,0.00,VWS V14.01,2013-09-27 02:47:00,
2013-09-26 19:52:00,65.2,36.9,29.79,NE,47,2.0,0.0,35,0.00,,---,0.00,VWS V14.01,2013-09-27 02:52:00,
2013-09-26 19:57:00,65.1,37.5,29.79,NE,50,0.0,0.0,36,0.00,,---,0.00,VWS V14.01,2013-09-27 02:57:00,
2013-09-26 20:03:00,64.9,37.3,29.79,ENE,61,1.0,0.0,36,0.00,,---,0.00,VWS V14.01,2013-09-27 03:03:00,
2013-09-26 20:08:00,64.7,37.2,29.80,ENE,78,0.0,0.0,36,0.00,,---,0.00,VWS V14.01,2013-09-27 03:08:00,
2013-09-26 20:13:00,64.5,37.0,29.80,ESE,110,0.0,0.0,36,0.00,,---,0.00,VWS V14.01,2013-09-27 03:13:00,
2013-09-26 20:18:00,64.2,37.4,29.80,ENE,71,0.0,0.0,37,0.00,,---,0.00,VWS V14.01,2013-09-27 03:18:00,
2013-09-26 20:23:00,64.0,37.2,29.80,NE,56,0.0,0.0,37,0.00,,---,0.00,VWS V14.01,2013-09-27 03:23:00,
2013-09-26 20:28:00,63.8,37.0,29.81,East,90,0.0,0.0,37,0.00,,---,0.00,VWS V14.01,2013-09-27 03:28:00,
2013-09-26 20:33:00,63.6,37.5,29.80,NE,53,0.0,0.0,38,0.00,,---,0.00,VWS V14.01,2013-09-27 03:33:00,
2013-09-26 20:38:00,63.4,37.4,29.81,ENE,67,0.0,0.0,38,0.00,,---,0.00,VWS V14.01,2013-09-27 03:38:00,
2013-09-26 20:43:00,63.1,37.1,29.81,ENE,68,0.0,0.0,38,0.00,,---,0.00,VWS V14.01,2013-09-27 03:43:00,
2013-09-26 20:48:00,62.6,38.6,29.81,East,88,0.0,0.0,41,0.00,,---,0.00,VWS V14.01,2013-09-27 03:48:00,
2013-09-26 20:53:00,62.2,37.6,29.81,North,10,0.0,0.0,40,0.00,,---,0.00,VWS V14.01,2013-09-27 03:53:00,
2013-09-26 20:58:00,61.8,37.2,29.81,North,9,0.0,0.0,40,0.00,,---,0.00,VWS V14.01,2013-09-27 03:58:00,
2013-09-26 21:01:00,61.6,38.3,29.81,North,11,0.0,0.0,42,0.00,,---,0.00,VWS V14.01,2013-09-27 04:01:00,
2013-09-26 21:02:00,61.6,38.9,29.81,North,11,0.0,0.0,43,0.00,,---,0.00,VWS V14.01,2013-09-27 04:02:00,
2013-09-26 21:05:00,61.4,37.5,29.82,North,11,0.0,0.0,41,0.00,,---,0.00,VWS V14.01,2013-09-27 04:05:00,
2013-09-26 21:10:00,61.0,37.8,29.82,North,10,0.0,0.0,42,0.00,,---,0.00,VWS V14.01,2013-09-27 04:10:00,
2013-09-26 21:15:00,60.7,37.5,29.82,North,11,0.0,0.0,42,0.00,,---,0.00,VWS V14.01,2013-09-27 04:15:00,
2013-09-26 21:20:00,60.4,38.4,29.82,North,11,0.0,0.0,44,0.00,,---,0.00,VWS V14.01,2013-09-27 04:20:00,
2013-09-26 21:25:00,60.2,38.2,29.82,North,11,0.0,0.0,44,0.00,,---,0.00,VWS V14.01,2013-09-27 04:25:00,
2013-09-26 21:30:00,60.1,38.1,29.82,North,10,0.0,0.0,44,0.00,,---,0.00,VWS V14.01,2013-09-27 04:30:00,
2013-09-26 21:35:00,60.0,38.6,29.82,North,11,0.0,0.0,45,0.00,,---,0.00,VWS V14.01,2013-09-27 04:35:00,
2013-09-26 21:40:00,60.0,36.9,29.82,North,11,0.0,0.0,42,0.00,,---,0.00,VWS V14.01,2013-09-27 04:40:00,
2013-09-26 21:45:00,59.8,36.7,29.82,North,10,0.0,0.0,42,0.00,,---,0.00,VWS V14.01,2013-09-27 04:45:00,
2013-09-26 21:50:00,59.6,36.5,29.83,North,11,0.0,0.0,42,0.00,,---,0.00,VWS V14.01,2013-09-27 04:50:00,
2013-09-26 21:55:00,59.4,36.3,29.83,North,11,0.0,0.0,42,0.00,,---,0.00,VWS V14.01,2013-09-27 04:55:00,
2013-09-26 22:00:00,59.2,36.7,29.83,North,11,0.0,0.0,43,0.00,,---,0.00,VWS V14.01,2013-09-27 05:00:00,
2013-09-26 22:05:00,59.0,37.7,29.83,North,11,0.0,0.0,45,0.00,,---,0.00,VWS V14.01,2013-09-27 05:05:00,
2013-09-26 22:10:00,58.9,37.0,29.83,North,10,0.0,0.0,44,0.00,,---,0.00,VWS V14.01,2013-09-27 05:10:00,
2013-09-26 22:15:00,58.8,36.4,29.83,North,11,0.0,0.0,43,0.00,,---,0.00,VWS V14.01,2013-09-27 05:15:00,
2013-09-26 22:20:00,58.7,36.3,29.84,North,11,0.0,0.0,43,0.00,,---,0.00,VWS V14.01,2013-09-27 05:20:00,
2013-09-26 22:25:00,58.7,36.9,29.84,North,5,0.0,0.0,44,0.00,,---,0.00,VWS V14.01,2013-09-27 05:25:00,
2013-09-26 22:30:00,58.7,36.9,29.84,North,5,0.0,0.0,44,0.00,,---,0.00,VWS V14.01,2013-09-27 05:30:00,
2013-09-26 22:35:00,58.6,36.8,29.84,ENE,75,0.0,0.0,44,0.00,,---,0.00,VWS V14.01,2013-09-27 05:35:00,
2013-09-26 22:41:00,58.6,35.6,29.84,ENE,75,0.0,0.0,42,0.00,,---,0.00,VWS V14.01,2013-09-27 05:41:00,
2013-09-26 22:46:00,58.6,35.6,29.84,East,92,0.0,0.0,42,0.00,,---,0.00,VWS V14.01,2013-09-27 05:46:00,
2013-09-26 22:51:00,58.6,36.2,29.84,East,92,0.0,0.0,43,0.00,,---,0.00,VWS V14.01,2013-09-27 05:51:00,
2013-09-26 22:56:00,58.5,36.1,29.84,East,93,1.0,0.0,43,0.00,,---,0.00,VWS V14.01,2013-09-27 05:56:00,
2013-09-26 23:01:00,58.2,36.4,29.84,East,86,0.0,0.0,44,0.00,,---,0.00,VWS V14.01,2013-09-27 06:01:00,
2013-09-26 23:06:00,58.2,35.2,29.84,ESE,105,0.0,0.0,42,0.00,,---,0.00,VWS V14.01,2013-09-27 06:06:00,
2013-09-26 23:11:00,58.3,35.3,29.84,East,89,0.0,0.0,42,0.00,,---,0.00,VWS V14.01,2013-09-27 06:11:00,
2013-09-26 23:16:00,58.4,36.0,29.84,East,96,0.0,0.0,43,0.00,,---,0.00,VWS V14.01,2013-09-27 06:16:00,
2013-09-26 23:21:00,58.4,34.8,29.84,East,91,0.0,0.0,41,0.00,,---,0.00,VWS V14.01,2013-09-27 06:21:00,
2013-09-26 23:26:00,58.7,35.1,29.84,NE,51,0.0,0.0,41,0.00,,---,0.00,VWS V14.01,2013-09-27 06:26:00,
2013-09-26 23:31:00,58.9,35.3,29.84,NE,49,0.0,0.0,41,0.00,,---,0.00,VWS V14.01,2013-09-27 06:31:00,
2013-09-26 23:36:00,58.9,35.3,29.84,East,80,0.0,0.0,41,0.00,,---,0.00,VWS V14.01,2013-09-27 06:36:00,
2013-09-26 23:41:00,58.8,34.5,29.84,East,97,0.0,0.0,40,0.00,,---,0.00,VWS V14.01,2013-09-27 06:41:00,
2013-09-26 23:46:00,58.7,34.5,29.84,ESE,105,0.0,0.0,40,0.00,,---,0.00,VWS V14.01,2013-09-27 06:46:00,
2013-09-26 23:51:00,58.6,35.6,29.85,East,98,0.0,0.0,42,0.00,,---,0.00,VWS V14.01,2013-09-27 06:51:00,
2013-09-26 23:56:00,58.4,34.8,29.85,ENE,76,2.0,0.0,41,0.00,,---,0.00,VWS V14.01,2013-09-27 06:56:00,